Lihue, HI

8:37 AM HST on January 17, 2018 (GMT -1000)
Lihue

Weather History for PHLI - January, 2013

Change the Weather History Date:

Sunday, January 6, 2013

  Actual Average Record
Temperature  
Mean Temperature 74 °F 72 °F  
Max Temperature 77 °F 78 °F 85 °F (1981)
Min Temperature 70 °F 66 °F 56 °F (1971)
Degree Days  
Heating Degree Days 0 0  
Month to date heating degree days 0 0  
Since 1 July heating degree days 0 0  
Cooling Degree Days 9 7  
Month to date cooling degree days 47 42  
Year to date cooling degree days 47 42  
Growing Degree Days 24 (Base 50)    
Moisture  
Dew Point 66 °F    
Average Humidity 79    
Maximum Humidity 84    
Minimum Humidity 73    
Precipitation  
Precipitation 0.04 in 0.13 in 6.87 in (1962)
Month to date precipitation 0.40 0.79  
Year to date precipitation 0.40 0.79  
Snow  
Snow 0.00 in - - ()
Month to date snowfall 0.0  
Since 1 July snowfall 0.0  
Snow Depth 0.00 in    
Sea Level Pressure  
Sea Level Pressure 30.13 in    
Wind  
Wind Speed 20 mph (ENE)    
Max Wind Speed 30 mph    
Max Gust Speed 36 mph    
Visibility 10 miles    
Events Rain    
T = Trace of Precipitation, MM = Missing Value Source: NWS Daily Summary

Daily Weather History Graph

Daily Weather History Graph

Search for Another Location

Airport or City:

Trip Planner

Search our weather history database for the weather conditions in past years. The results will help you decide how hot, cold, wet, or windy it might be!

Date:

Astronomy

Jan. 06, 2013 Rise Set
Actual Time 7:17 AM HST 6:09 PM HST
Civil Twilight 6:53 AM HST 6:33 PM HST
Nautical Twilight 6:25 AM HST 7:01 PM HST
Astronomical Twilight 5:58 AM HST 7:28 PM HST
Moon 1:59 AM HST (1/6) 1:33 PM HST (1/6)
Length of Visible Light 11h 39m
Length of Day
10h 51m
Waning Crescent, 31% of the Moon is Illuminated
Jan 6
Waning Crescent
Jan 11
New
Jan 18
First Quarter
Jan 26
Full
Feb 3
Last Quarter

Hourly Weather History & Observations

Time (HST) Temp. Dew Point Humidity Pressure Visibility Wind Dir Wind Speed Gust Speed Precip Events Conditions
12:19 AM 71.6 °F 66.2 °F 83% 30.19 in 10.0 mi ENE 17.3 mph - 0.01 in   Overcast
12:53 AM 73.0 °F 66.0 °F 79% 30.18 in 9.0 mi ENE 16.1 mph - 0.01 in   Overcast
1:48 AM 73.4 °F 64.4 °F 73% 30.17 in 10.0 mi ENE 20.7 mph - N/A   Overcast
1:53 AM 73.0 °F 64.0 °F 73% 30.17 in 10.0 mi ENE 23.0 mph 29.9 mph N/A   Overcast
2:53 AM 71.1 °F 64.9 °F 81% 30.16 in 7.0 mi ENE 18.4 mph - 0.02 in Rain Light Rain
3:53 AM 72.0 °F 64.9 °F 78% 30.14 in 10.0 mi ENE 16.1 mph - 0.00 in   Scattered Clouds
4:53 AM 72.0 °F 66.0 °F 81% 30.15 in 10.0 mi East 18.4 mph - 0.01 in   Mostly Cloudy
5:53 AM 73.0 °F 64.0 °F 73% 30.14 in 10.0 mi East 19.6 mph - N/A   Mostly Cloudy
6:10 AM 73.4 °F 64.4 °F 73% 30.14 in 10.0 mi ENE 21.9 mph 25.3 mph N/A   Overcast
6:53 AM 72.0 °F 66.0 °F 81% 30.14 in 10.0 mi ENE 17.3 mph 29.9 mph N/A   Mostly Cloudy
7:44 AM 73.4 °F 64.4 °F 73% 30.16 in 10.0 mi East 20.7 mph 27.6 mph N/A   Mostly Cloudy
7:53 AM 73.0 °F 64.9 °F 76% 30.16 in 10.0 mi East 23.0 mph 29.9 mph N/A   Overcast
8:53 AM 73.9 °F 66.0 °F 76% 30.18 in 9.0 mi ENE 18.4 mph 26.5 mph N/A   Overcast
9:32 AM 75.2 °F 66.2 °F 73% 30.19 in 10.0 mi ENE 16.1 mph - 0.00 in   Mostly Cloudy
9:39 AM 75.2 °F 66.2 °F 73% 30.20 in 10.0 mi ENE 19.6 mph 29.9 mph 0.00 in   Mostly Cloudy
9:48 AM 75.2 °F 68.0 °F 78% 30.20 in 9.0 mi ENE 16.1 mph - 0.00 in   Mostly Cloudy
9:53 AM 73.9 °F 66.0 °F 76% 30.19 in 9.0 mi ENE 16.1 mph - 0.00 in   Mostly Cloudy
10:53 AM 73.9 °F 66.0 °F 76% 30.17 in 6.0 mi ENE 20.7 mph 28.8 mph N/A   Haze
11:05 AM 73.4 °F 66.2 °F 78% 30.17 in 9.0 mi East 21.9 mph 26.5 mph 0.00 in   Mostly Cloudy
11:49 AM 73.4 °F 66.2 °F 78% 30.15 in 10.0 mi ENE 20.7 mph 27.6 mph 0.00 in   Overcast
11:53 AM 73.9 °F 66.9 °F 79% 30.14 in 10.0 mi ENE 23.0 mph 27.6 mph 0.00 in   Overcast
12:00 PM 75.2 °F 68.0 °F 78% 30.14 in 10.0 mi ENE 19.6 mph - N/A   Overcast
12:07 PM 75.2 °F 66.2 °F 73% 30.14 in 10.0 mi ENE 20.7 mph - N/A   Overcast
12:53 PM 73.9 °F 66.9 °F 79% 30.12 in 10.0 mi East 21.9 mph 27.6 mph 0.00 in   Overcast
1:02 PM 75.2 °F 68.0 °F 78% 30.12 in 10.0 mi ENE 18.4 mph - N/A   Mostly Cloudy
1:25 PM 75.2 °F 66.2 °F 73% 30.11 in 10.0 mi ENE 15.0 mph - N/A   Mostly Cloudy
1:53 PM 75.9 °F 66.9 °F 74% 30.08 in 10.0 mi ENE 17.3 mph - N/A   Mostly Cloudy
2:36 PM 75.2 °F 66.2 °F 73% 30.07 in 10.0 mi ENE 17.3 mph - N/A   Mostly Cloudy
2:53 PM 75.0 °F 66.9 °F 76% 30.07 in 10.0 mi ENE 18.4 mph - N/A   Mostly Cloudy
3:53 PM 75.0 °F 66.0 °F 73% 30.07 in 10.0 mi ENE 19.6 mph - N/A   Overcast
4:04 PM 75.2 °F 66.2 °F 73% 30.08 in 10.0 mi ENE 18.4 mph - N/A   Overcast
4:28 PM 75.2 °F 64.4 °F 69% 30.08 in 10.0 mi East 24.2 mph 27.6 mph N/A   Overcast
4:53 PM 73.9 °F 66.0 °F 76% 30.08 in 10.0 mi ENE 20.7 mph 28.8 mph N/A   Overcast
5:53 PM 73.9 °F 66.9 °F 79% 30.07 in 8.0 mi ENE 20.7 mph 29.9 mph N/A   Scattered Clouds
6:53 PM 73.0 °F 66.9 °F 81% 30.08 in 10.0 mi East 23.0 mph - N/A   Partly Cloudy
7:53 PM 73.0 °F 66.0 °F 79% 30.09 in 10.0 mi East 21.9 mph 28.8 mph N/A   Scattered Clouds
8:21 PM 73.4 °F 66.2 °F 78% 30.10 in 9.0 mi East 19.6 mph 27.6 mph N/A   Mostly Cloudy
8:53 PM 73.9 °F 66.9 °F 79% 30.09 in 9.0 mi East 23.0 mph 28.8 mph N/A   Scattered Clouds
9:27 PM 73.4 °F 66.2 °F 78% 30.11 in 10.0 mi ENE 21.9 mph - N/A   Mostly Cloudy
9:53 PM 73.0 °F 66.0 °F 79% 30.11 in 9.0 mi East 20.7 mph 25.3 mph N/A   Overcast
10:50 PM 73.4 °F 64.4 °F 73% 30.11 in 10.0 mi East 20.7 mph 25.3 mph N/A   Overcast
10:53 PM 73.0 °F 64.9 °F 76% 30.11 in 10.0 mi East 18.4 mph - N/A   Overcast
11:53 PM 73.0 °F 64.9 °F 76% 30.10 in 9.0 mi East 17.3 mph - N/A   Mostly Cloudy